Weather History for KONM - April, 2013

Change the Weather History Date:

Friday, April 5, 2013

  Actual Average Record
Temperature  
Mean Temperature 66 °F -  
Max Temperature 82 °F 71 °F 82 °F (2013)
Min Temperature 50 °F 32 °F 37 °F (2011)
Cooling Degree Days 1    
Growing Degree Days 16 (Base 50)    
Moisture  
Dew Point 12 °F    
Average Humidity 10    
Maximum Humidity 20    
Minimum Humidity 7    
Precipitation  
Precipitation 0.00 in - - ()
Sea Level Pressure  
Sea Level Pressure 29.95 in    
Wind  
Wind Speed 11 mph (SSW)    
Max Wind Speed 23 mph    
Max Gust Speed 32 mph    
Visibility 10 miles    
Events      
Averages and records for this station are not official NWS values.
T = Trace of Precipitation, MM = Missing Value Source: NWS Daily Summary

Daily Weather History Graph

Daily Weather History Graph

Search for Another Location

Airport or City:

Trip Planner

Search our weather history database for the weather conditions in past years. The results will help you decide how hot, cold, wet, or windy it might be!

Date:

Astronomy

Apr. 05, 2013 Rise Set
Actual Time 6:49 AM MDT 7:31 PM MDT
Civil Twilight 6:23 AM MDT 7:57 PM MDT
Nautical Twilight 5:54 AM MDT 8:26 PM MDT
Astronomical Twilight 5:23 AM MDT 8:57 PM MDT
Moon 3:45 AM MDT (4/5) 3:10 PM MDT (4/5)
Length of Visible Light 13h 33m
Length of Day
12h 42m
Waning Crescent, 23% of the Moon is Illuminated
Apr 5
Waning Crescent
Apr 10
New
Apr 18
First Quarter
Apr 25
Full
May 2
Last Quarter

Hourly Weather History & Observations

Time (MDT) Temp. Dew Point Humidity Pressure Visibility Wind Dir Wind Speed Gust Speed Precip Events Conditions
12:15 AM 56.5 °F 10.9 °F 16% 30.12 in 10.0 mi SSE 9.2 mph - N/A   Clear
6:55 AM 50.4 °F 9.9 °F 20% 30.10 in 10.0 mi SSW 8.1 mph - N/A   Clear
7:35 AM 52.7 °F 10.8 °F 19% 30.11 in 10.0 mi SSW 6.9 mph - N/A   Clear
8:35 AM 55.9 °F 9.7 °F 16% 30.11 in 10.0 mi SSE 8.1 mph - N/A   Clear
9:15 AM 58.5 °F 9.7 °F 14% 30.11 in 10.0 mi SSE 10.4 mph - N/A   Clear
9:35 AM 59.4 °F 10.0 °F 14% 30.11 in 10.0 mi SSE 10.4 mph - N/A   Clear
9:55 AM 60.3 °F 10.4 °F 14% 30.11 in 10.0 mi South 10.4 mph - N/A   Clear
11:55 AM 70.9 °F 11.3 °F 10% 30.07 in 10.0 mi South 15.0 mph 21.9 mph N/A   Clear
12:15 PM 71.2 °F 12.0 °F 10% 30.06 in 10.0 mi South 15.0 mph 23.0 mph N/A   Clear
12:55 PM 71.8 °F 13.6 °F 11% 30.04 in 10.0 mi SSW 16.1 mph 19.6 mph N/A   Clear
1:35 PM 74.1 °F 14.2 °F 10% 30.01 in 10.0 mi South 15.0 mph - N/A   Clear
1:55 PM 73.6 °F 13.6 °F 10% 30.00 in 10.0 mi South 11.5 mph - N/A   Clear
2:15 PM 73.9 °F 13.8 °F 10% 29.98 in 10.0 mi SE 16.1 mph 20.7 mph N/A   Scattered Clouds
2:35 PM 75.2 °F 13.8 °F 10% 29.97 in 10.0 mi SSE 13.8 mph - N/A   Scattered Clouds
2:55 PM 79.7 °F 14.7 °F 9% 29.96 in 10.0 mi SE 10.4 mph 18.4 mph N/A   Clear
3:15 PM 80.2 °F 13.3 °F 8% 29.95 in 10.0 mi SW 12.7 mph 23.0 mph N/A   Clear
3:35 PM 79.2 °F 13.3 °F 8% 29.93 in 10.0 mi SW 12.7 mph 20.7 mph N/A   Clear
3:55 PM 79.7 °F 12.6 °F 8% 29.92 in 10.0 mi South 13.8 mph 23.0 mph N/A   Clear
4:15 PM 82.8 °F 12.9 °F 7% 29.90 in 10.0 mi SSW 12.7 mph 25.3 mph N/A   Clear
4:35 PM 81.1 °F 12.2 °F 7% 29.89 in 10.0 mi SW 18.4 mph 28.8 mph N/A   Clear
4:55 PM 81.5 °F 11.7 °F 7% 29.88 in 10.0 mi South 17.3 mph 23.0 mph N/A   Clear
5:15 PM 81.0 °F 11.3 °F 7% 29.87 in 10.0 mi South 17.3 mph 25.3 mph N/A   Clear
5:35 PM 80.2 °F 10.8 °F 7% 29.86 in 10.0 mi SSW 8.1 mph 25.3 mph N/A   Clear
5:55 PM 78.8 °F 9.7 °F 7% 29.86 in 10.0 mi SSW 8.1 mph 20.7 mph N/A   Clear
6:15 PM 80.4 °F 10.4 °F 7% 29.85 in 10.0 mi South 10.4 mph - N/A   Clear
6:35 PM 80.1 °F 10.2 °F 7% 29.85 in 10.0 mi South 8.1 mph 16.1 mph N/A   Clear
6:55 PM 79.0 °F 9.7 °F 7% 29.85 in 10.0 mi South 5.8 mph - N/A   Clear
7:15 PM 77.0 °F 10.2 °F 8% 29.85 in 10.0 mi Calm Calm - N/A   Clear
7:35 PM 75.7 °F 10.6 °F 8% 29.85 in 10.0 mi West 13.8 mph 19.6 mph N/A   Clear
7:55 PM 75.2 °F 10.2 °F 8% 29.86 in 10.0 mi West 16.1 mph 24.2 mph N/A   Clear
8:15 PM 74.3 °F 9.5 °F 8% 29.87 in 10.0 mi West 12.7 mph 23.0 mph N/A   Clear
8:35 PM 73.4 °F 8.6 °F 8% 29.87 in 10.0 mi West 11.5 mph - N/A   Clear
8:55 PM 70.5 °F 8.2 °F 9% 29.89 in 10.0 mi WSW 10.4 mph - N/A   Clear
9:15 PM 70.7 °F 9.3 °F 9% 29.90 in 10.0 mi West 10.4 mph - N/A   Clear
9:35 PM 71.4 °F 11.8 °F 10% 29.91 in 10.0 mi West 16.1 mph 21.9 mph N/A   Clear
9:55 PM 71.2 °F 13.1 °F 11% 29.93 in 10.0 mi West 16.1 mph 19.6 mph N/A   Clear
10:15 PM 69.8 °F 14.2 °F 12% 29.93 in 10.0 mi West 10.4 mph 18.4 mph N/A   Clear
10:35 PM 69.4 °F 14.9 °F 12% 29.94 in 10.0 mi WSW 4.6 mph 11.5 mph N/A   Clear
11:35 PM 68.0 °F 17.4 °F 14% 29.94 in 10.0 mi West 20.7 mph 32.2 mph N/A   Clear
11:55 PM 67.5 °F 18.0 °F 15% 29.94 in 10.0 mi West 23.0 mph 29.9 mph N/A   Clear